Location: Emblem
(62.4273°N, 6.4710°E)
Time: 13:20:49
(UTC+01:00)

UWE-3 - Visible Passes

Search period start: 05 March 2024 00:00
Search period end: 15 March 2024 00:00
Orbit: 571 x 657 km, 97.8° (Epoch: 04 March)

Date Brightness Start Highest point End Pass type
(mag) Time Alt. Az. Time Alt. Az. Time Alt. Az.
05 Mar ? 02:25:59 10° NNE 02:29:07 25° ENE 02:29:07 25° ENE visible
05 Mar ? 04:01:44 10° NNE 04:06:06 71° WNW 04:06:10 71° WNW visible
05 Mar ? 05:38:20 10° N 05:41:31 20° NW 05:43:14 16° WNW visible
06 Mar ? 02:41:26 10° NNE 02:44:57 31° E 02:44:57 31° E visible
06 Mar ? 04:17:22 10° NNE 04:21:37 55° WNW 04:22:00 53° W visible
06 Mar ? 05:54:05 10° N 05:56:53 17° NW 05:59:04 12° WNW visible
07 Mar ? 02:56:54 10° NNE 03:00:47 40° E 03:00:47 40° E visible
07 Mar ? 04:33:00 10° N 04:37:07 44° WNW 04:37:50 40° W visible
07 Mar ? 06:09:53 10° N 06:12:14 14° NW 06:14:32 10° WNW visible
08 Mar ? 01:37:58 10° ENE 01:39:34 12° ENE 01:39:34 12° ENE visible
08 Mar ? 03:12:24 10° NNE 03:16:36 52° E 03:16:36 52° E visible
08 Mar ? 04:48:38 10° N 04:52:35 35° WNW 04:53:39 30° W visible
08 Mar ? 06:25:45 10° N 06:27:33 12° NW 06:29:19 10° WNW visible
09 Mar ? 01:52:52 10° NE 01:55:22 15° E 01:55:22 15° E visible
09 Mar ? 03:27:56 10° NNE 03:32:14 68° ESE 03:32:25 67° ESE visible
09 Mar ? 05:04:17 10° N 05:08:00 29° NW 05:09:28 23° W visible
10 Mar ? 02:08:02 10° NE 02:11:06 19° E 02:11:10 19° E visible
10 Mar ? 03:43:29 10° NNE 03:47:48 87° E 03:48:13 72° S visible
10 Mar ? 05:19:57 10° N 05:23:24 24° NW 05:25:16 18° W visible
11 Mar ? 02:23:20 10° NE 02:26:49 24° E 02:26:58 24° E visible
11 Mar ? 03:59:02 10° NNE 04:03:19 73° WNW 04:04:01 58° SW visible
11 Mar ? 05:35:38 10° N 05:38:45 20° NW 05:41:04 13° W visible
12 Mar ? 02:38:42 10° NNE 02:42:29 30° E 02:42:45 30° E visible
12 Mar ? 04:14:36 10° NNE 04:18:48 57° WNW 04:19:48 44° WSW visible
12 Mar ? 05:51:20 10° N 05:54:05 17° NW 05:56:47 10° W visible
13 Mar ? 02:54:07 10° NNE 02:58:07 38° E 02:58:32 37° ESE visible
13 Mar ? 04:30:11 10° N 04:34:15 45° WNW 04:35:35 33° WSW visible
13 Mar ? 06:07:06 10° N 06:09:24 14° NW 06:11:39 10° WNW visible
14 Mar ? 01:35:27 10° ENE 01:36:36 11° ENE 01:37:15 11° E visible
14 Mar ? 03:09:34 10° NNE 03:13:42 50° E 03:14:18 46° SE visible
14 Mar ? 04:45:47 10° N 04:49:40 36° WNW 04:51:22 25° WSW visible
